Погода в Вязьме

Погода в Вязьме : погода сейчас, прогноз погоды и архив. Всё, что Вы хотите узнать о погоде в Вязьме!

Поиск расширенной информации на нашем сайте:

Другие новости

Новости СМИ2

Главная страница сайта

Новости сайта

03.07.2017

Напоминаем, что на нашем специализированном сайте Метеоцентр.Азия вы можете получить высокодетализированные автоматические прогнозы погоды по пунктам России, СНГ и мира в авиационном формате (включающие направление и скорость ветра, видимость, явления погоды, количество и форму облачности, нижнюю и верхнюю границу облачности).


Погода в Вязьме - сегодня

Время (UTC), дата Ветер
(°,м/с) 
Видим.   Явления Облачность Т
(°С)
Тd
(°С)
f(%) Тe
(°С)
Pmin
(гПа)
dP
(гПа)
Po
(мм)
O2
(г/м3)
Тmin Tmax R s Состояние
почвы
09 10.10.18 230 (ЮЗ) 10 км    9/0 средняя, верхняя 
[Ac trans|Ci fib]
+11.7 +5.4 65 +11  1023.5  -0.4  745  287           
12 10.10.18 250 (З) 10 км    9/0 средняя, верхняя 
[Ac trans|Ci fib]
+14.5 +2.9 46 +14  1022.3  -0.8  745  284           
21 10.10.18 300 (СЗ) 10 км    10/0 средняя, верхняя 
[Ac trans|Ci fib]
+10.4 +6.8 78 +11  1026.2  1.2  747  289           
00 11.10.18 300 (СЗ) 10 км    10/0 средняя, верхняя 
[Ac trans|Ci sp]
+10.3 +7.6 83 +10  1027.4  1.2  748  289           
09 11.10.18 310 (СЗ) 10 км    4/4 600 м 
[Cu hum]
+13.4 +7.5 67 +13  1031.1  1.1  751  287           
12 11.10.18 330 (СЗ) 10 км    1/1 1500 м 
[Cu hum]
+15.7 +4.9 49 +16  1030.5  -0.5  751  285           
15 11.10.18 360 (С) 10 км    ясно 
+12.7 +4.2 56 +14  1031.7  0.9  751  289           
21 11.10.18 тихо ()   4000 м  дымка  ясно 
+2.6 +2.5 99 +3  1035.2  0.9  753  300           
00 12.10.18 тихо ()   4000 м  дымка  ясно 
+1 +0.9 99 +1  1036.3  0.9  754  302           
09 12.10.18 260 (З) 10 км    ясно 
+14.5 +4.5 51 +15  1036.2  0.1  755  288           
12 12.10.18 250 (З) 10 км    ясно 
+16.9 +4.2 43 +17  1034.4  -1.5  754  285           
15 12.10.18 250 (З) 10 км    ясно 
+12.1 +4.4 59 +12  1033.4  -1.5  753  290           
21 12.10.18 270 (З) 10 км    ясно 
+8.7 +5.8 82 +9  1033.1  0.1  752  293           
00 13.10.18 280 (З) 4000 м  дымка  ясно 
+6.3 +5.6 95 +6  1033.1  -0.3  752  295           
09 13.10.18 280 (З) 10 км    4/0 верхняя 
[Cc]
+13 +7.8 71 +13  1031.4  0.1  751  288           
12 13.10.18 250 (З) 10 км    4/0 верхняя 
[Cc]
+16.2 +7.2 55 +16  1030  -1  750  284           
15 13.10.18 250 (З) 10 км    3/0 верхняя 
[Cc]
+12.9 +6.8 66 +13  1029.4  -0.9  750  287           
21 13.10.18 260 (З) 10 км    ясно 
+7.8 +6.9 94 +9  1029.8  0.1  750  292           
00 14.10.18 260 (З) 4000 м  дымка  ясно 
+6.5 +6.3 99 +7  1030.1  0.1  750  294           
09 14.10.18 300 (СЗ) 10 км  дымка{туман}  6/0 верхняя 
[Ci fib]
+15.5 +10.3 71 +18  1029.5  750  284           
15 14.10.18 280 (З) 10 км    4/0 средняя, верхняя 
[Ac trans|Ci fib]
+13.9 +9.5 75 +16  1028.6  -0.2  749  286           
21 14.10.18 290 (З) 4000 м  дымка  ясно 
+7.5 +7.2 98 +8  1029.4  0.2  749  293           
00 15.10.18 310 (СЗ) 4000 м  дымка  ясно 
+7.2 +7 99 +8  1029.9  0.4  750  293           
09 15.10.18 290 (З) 10 км  {туман}  ясно 
+16.1 +9.2 64 +17  1029.4  0.1  750  284           
15 15.10.18 230 (ЮЗ) 10 км    10/0 средняя, верхняя 
[Ac trans|Ci fib]
+12.6 +7.5 71 +13  1028.6  -0.7  749  287           
Время (UTC), дата Ветер
(°,м/с) 
Видим.   Явления Облачность Т
(°С)
Тd
(°С)
f(%) Тe
(°С)
Pmin
(гПа)
dP
(гПа)
Po
(мм)
O2
(г/м3)
Тmin Tmax R s Состояние
почвы

Для получения пояснительной информации подведите курсор к названию столбца.

ПОГОДА в Вязьме - архив

Всё, что Вы хотите узнать о погоде в Вязьме - удобно и подробно!

Выберите нужную дату (начиная с 1 января 2015* года) и нажмите кнопку "Найти".
Будут отображены архивные сводки погоды по пункту Вязьма, начиная с указанной даты.


Отображать данные в формате CSV (для использования в таблицах Excel)


Внимание! Наш архив погоды предназначен исключительно для личного некоммерческого использования в познавательных целях. Если Вам необходимы официальные справки о состоянии погоды (для производственных, юридических, коммерческих и т.п. целей), обращайтесь в органы Росгидромета.

*Примечание: данная дата относится к архиву по метеостанциям СССР (Россия, СНГ, Балтия).
Архив по метеостанциям Зарубежной Европы и Азии (кроме Китая) хранится 10 дней, по другим регионам земного шара (Китай, Африка, Америка, Австралия, Океания) - 1 день.

Вязьма - район местоположения метеостанции


Название, широта, долгота, высота метеостанции:
Вязьма 55.2°ш. 34.4°д. 251 м над ур. моря [Российская Федерация]

Дополнительная информация

В oтличие oт бoльшинства пoгoдных сайтoв мы публикуем пoдрoбную метеoинфoрмацию в детальнoм прoфессиoнальнoм фoрмате.

Характеристики температуры и влажнoсти вoздуха измеряются на высoте 2 м в тени вдали oт зданий и деревьев.
Скoрoсть ветра измеряется на высoте 10 м (на урoвне рoста челoвека скoрoсть ветра ниже в 1.5-2 раза). Если метеoстанция нахoдится в гoрoде или в лесу, тo скoрoсть ветра занижена на 2-4 м/с пo сравнению с oткрытым местoм. Скoрoсть ветра над акватoриями крупных рек и oзёр, а также на вершинах хoлмoв на 2-5 м/с выше, чем в oбычных услoвиях.
Атмoсфернoе давление в разных тoчках местнoсти мoжет значительнo oтличаться oт давления на метеoстанции, в зависимoсти oт услoвий рельефа (при пoдъёме на 10 м давление пoнижается примернo на 1 мм рт.ст.).